| time (UTC) | temp F | wind direction | speed MPH | gust MPH | rain 1hr in | rain 24hr in | rain mn in | humidity % | barometer mb |
| 20260504185505 | 65 | 228 | 7.0 | 17.0 | 0.00 | 0.00 | 0.00 | 36 | 1011.3 |
| 20260504185010 | 65 | 209 | 7.0 | 17.0 | 0.00 | 0.00 | 0.00 | 34 | 1011.4 |
| 20260504184505 | 65 | 218 | 6.0 | 16.0 | 0.00 | 0.00 | 0.00 | 34 | 1011.4 |
| 20260504184009 | 66 | 238 | 7.0 | 16.0 | 0.00 | 0.00 | 0.00 | 33 | 1011.5 |
| 20260504183505 | 66 | 205 | 6.0 | 17.0 | 0.00 | 0.00 | 0.00 | 33 | 1011.6 |
| 20260504183009 | 66 | 206 | 6.0 | 17.0 | 0.00 | 0.00 | 0.00 | 31 | 1011.5 |
| 20260504182505 | 67 | 217 | 5.0 | 12.0 | 0.00 | 0.00 | 0.00 | 31 | 1011.5 |
| 20260504182009 | 66 | 177 | 5.0 | 12.0 | 0.00 | 0.00 | 0.00 | 34 | 1011.5 |
| 20260504181505 | 66 | 206 | 5.0 | 12.0 | 0.00 | 0.00 | 0.00 | 33 | 1011.6 |
| 20260504181008 | 66 | 204 | 5.0 | 12.0 | 0.00 | 0.00 | 0.00 | 34 | 1011.8 |
| 20260504180505 | 66 | 217 | 5.0 | 12.0 | 0.00 | 0.00 | 0.00 | 34 | 1011.8 |
| 20260504180004 | 65 | 183 | 2.0 | 13.0 | 0.00 | 0.00 | 0.00 | 36 | 1011.8 |
| 20260504175505 | 65 | 214 | 5.0 | 13.0 | 0.00 | 0.00 | 0.00 | 37 | 1011.8 |
| 20260504175009 | 65 | 236 | 6.0 | 13.0 | 0.00 | 0.00 | 0.00 | 37 | 1011.8 |
| 20260504174505 | 64 | 216 | 4.0 | 12.0 | 0.00 | 0.00 | 0.00 | 40 | 1011.9 |
| 20260504174009 | 64 | 237 | 5.0 | 12.0 | 0.00 | 0.00 | 0.00 | 42 | 1012.0 |
| 20260504173505 | 64 | 201 | 5.0 | 13.0 | 0.00 | 0.00 | 0.00 | 41 | 1012.0 |
| 20260504173009 | 64 | 228 | 6.0 | 13.0 | 0.00 | 0.00 | 0.00 | 41 | 1012.0 |
| 20260504172505 | 64 | 235 | 5.0 | 13.0 | 0.00 | 0.00 | 0.00 | 41 | 1012.0 |
| 20260504172009 | 64 | 218 | 4.0 | 13.0 | 0.00 | 0.00 | 0.00 | 43 | 1012.2 |
| 20260504171506 | 63 | 151 | 3.0 | 15.0 | 0.00 | 0.00 | 0.00 | 41 | 1012.2 |
| 20260504171008 | 63 | 250 | 7.0 | 17.0 | 0.00 | 0.00 | 0.00 | 39 | 1012.3 |
| 20260504170507 | 63 | 234 | 8.0 | 17.0 | 0.00 | 0.00 | 0.00 | 38 | 1012.4 |
| 20260504151007 | 61 | 210 | 5.0 | 12.0 | 0.00 | 0.00 | 0.00 | 33 | 1013.5 |
| 20260504150505 | 61 | 212 | 5.0 | 14.0 | 0.00 | 0.00 | 0.00 | 34 | 1013.6 |
| 20260504141007 | 59 | 238 | 9.0 | 17.0 | 0.00 | 0.00 | 0.00 | 34 | 1013.7 |
| 20260504140505 | 59 | 219 | 5.0 | 12.0 | 0.00 | 0.00 | 0.00 | 35 | 1013.7 |
| 20260504130505 | 56 | 228 | 5.0 | 12.0 | 0.00 | 0.00 | 0.00 | 46 | 1014.2 |
| 20260504110504 | 49 | 0 | 2.0 | 8.0 | 0.00 | 0.00 | 0.00 | 65 | 1014.3 |
| 20260504100505 | 48 | 280 | 3.0 | 10.0 | 0.00 | 0.00 | 0.00 | 50 | 1014.1 |
| 20260504081505 | 48 | 295 | 2.0 | 8.0 | 0.00 | 0.00 | 0.00 | 49 | 1013.5 |
| 20260504081008 | 48 | 281 | 3.0 | 8.0 | 0.00 | 0.00 | 0.00 | 49 | 1013.5 |
| 20260504080505 | 48 | 284 | 2.0 | 5.0 | 0.00 | 0.00 | 0.00 | 49 | 1013.5 |
| 20260504050505 | 48 | 315 | 2.0 | 5.0 | 0.00 | 0.00 | 0.00 | 52 | 1012.7 |
| 20260504050005 | 47 | 318 | 2.0 | 5.0 | 0.00 | 0.00 | 0.00 | 55 | 1012.7 |
| 20260504045505 | 46 | 321 | 2.0 | 5.0 | 0.00 | 0.00 | 0.00 | 57 | 1012.6 |
| 20260504045009 | 46 | 318 | 1.0 | 3.0 | 0.00 | 0.00 | 0.00 | 60 | 1012.6 |
| 20260504044505 | 45 | 320 | 1.0 | 3.0 | 0.00 | 0.00 | 0.00 | 63 | 1012.7 |
| 20260504044009 | 44 | 318 | 2.0 | 3.0 | 0.00 | 0.00 | 0.00 | 65 | 1012.6 |
| 20260504043505 | 43 | 292 | 2.0 | 3.0 | 0.00 | 0.00 | 0.00 | 68 | 1012.6 |
| 20260504043009 | 43 | 293 | 1.0 | 3.0 | 0.00 | 0.00 | 0.00 | 68 | 1012.7 |
| 20260504042505 | 43 | 346 | 0.0 | 2.0 | 0.00 | 0.00 | 0.00 | 68 | 1012.6 |
| 20260504042008 | 43 | 349 | 0.0 | 0.0 | 0.00 | 0.00 | 0.00 | 67 | 1012.7 |
| 20260504041505 | 43 | 346 | 0.0 | 0.0 | 0.00 | 0.00 | 0.00 | 66 | 1012.6 |
| 20260504041008 | 43 | 345 | 0.0 | 0.0 | 0.00 | 0.00 | 0.00 | 65 | 1012.6 |
| 20260504040505 | 43 | 345 | 0.0 | 0.0 | 0.00 | 0.00 | 0.00 | 64 | 1012.6 |
| 20260504040005 | 43 | 347 | 0.0 | 0.0 | 0.00 | 0.00 | 0.00 | 63 | 1012.5 |
| 20260504035506 | 44 | 345 | 0.0 | 0.0 | 0.00 | 0.00 | 0.00 | 63 | 1012.6 |
| 20260504035009 | 44 | 336 | 0.0 | 0.0 | 0.00 | 0.00 | 0.00 | 62 | 1012.6 |
| 20260504034505 | 44 | 335 | 0.0 | 0.0 | 0.00 | 0.00 | 0.00 | 61 | 1012.6 |
| 20260504034009 | 44 | 339 | 0.0 | 0.0 | 0.00 | 0.00 | 0.00 | 60 | 1012.5 |
| 20260504033505 | 44 | 344 | 0.0 | 0.0 | 0.00 | 0.00 | 0.00 | 59 | 1012.5 |
| 20260504033009 | 44 | 340 | 0.0 | 0.0 | 0.00 | 0.00 | 0.00 | 59 | 1012.5 |
| 20260504032505 | 45 | 346 | 0.0 | 0.0 | 0.00 | 0.00 | 0.00 | 59 | 1012.6 |
| 20260504032009 | 45 | 348 | 0.0 | 0.0 | 0.00 | 0.00 | 0.00 | 57 | 1012.5 |
| 20260504031505 | 45 | 346 | 0.0 | 0.0 | 0.00 | 0.00 | 0.00 | 56 | 1012.5 |
| 20260504031009 | 45 | 341 | 0.0 | 0.0 | 0.00 | 0.00 | 0.00 | 55 | 1012.5 |
| 20260504030505 | 45 | 344 | 0.0 | 0.0 | 0.00 | 0.00 | 0.00 | 53 | 1012.5 |
| 20260504030005 | 45 | 345 | 0.0 | 0.0 | 0.00 | 0.00 | 0.00 | 53 | 1012.5 |
| 20260504025505 | 46 | 348 | 0.0 | 0.0 | 0.00 | 0.00 | 0.00 | 52 | 1012.5 |
| 20260504025009 | 46 | 352 | 0.0 | 0.0 | 0.00 | 0.00 | 0.00 | 50 | 1012.5 |
| 20260504024505 | 46 | 351 | 0.0 | 0.0 | 0.00 | 0.00 | 0.00 | 50 | 1012.5 |
| 20260504024010 | 46 | 350 | 0.0 | 0.0 | 0.00 | 0.00 | 0.00 | 49 | 1012.5 |
| 20260504023505 | 46 | 352 | 0.0 | 0.0 | 0.00 | 0.00 | 0.00 | 47 | 1012.6 |
| 20260504023009 | 47 | 351 | 0.0 | 0.0 | 0.00 | 0.00 | 0.00 | 46 | 1012.6 |
| 20260504022505 | 47 | 355 | 0.0 | 2.0 | 0.00 | 0.00 | 0.00 | 43 | 1012.5 |
| 20260504022008 | 47 | 349 | 0.0 | 2.0 | 0.00 | 0.00 | 0.00 | 42 | 1012.5 |
| 20260504021505 | 48 | 350 | 0.0 | 0.0 | 0.00 | 0.00 | 0.00 | 38 | 1012.5 |
| 20260504021008 | 48 | 348 | 0.0 | 0.0 | 0.00 | 0.00 | 0.00 | 38 | 1012.4 |
| 20260504020505 | 48 | 351 | 0.0 | 0.0 | 0.00 | 0.00 | 0.00 | 34 | 1012.4 |
| 20260504020005 | 49 | 347 | 0.0 | 0.0 | 0.00 | 0.00 | 0.00 | 33 | 1012.4 |
| 20260504015505 | 49 | 350 | 0.0 | 0.0 | 0.00 | 0.00 | 0.00 | 32 | 1012.4 |
| 20260504015008 | 49 | 357 | 0.0 | 0.0 | 0.00 | 0.00 | 0.00 | 30 | 1012.3 |
| 20260504014504 | 49 | 356 | 0.0 | 0.0 | 0.00 | 0.00 | 0.00 | 27 | 1012.4 |
| 20260504014009 | 50 | 357 | 0.0 | 0.0 | 0.00 | 0.00 | 0.00 | 25 | 1012.3 |
| 20260504013505 | 50 | 356 | 0.0 | 0.0 | 0.00 | 0.00 | 0.00 | 24 | 1012.3 |
| 20260504013008 | 50 | 355 | 0.0 | 0.0 | 0.00 | 0.00 | 0.00 | 24 | 1012.2 |
| 20260504012505 | 51 | 356 | 0.0 | 0.0 | 0.00 | 0.00 | 0.00 | 20 | 1012.1 |
| 20260504012009 | 51 | 357 | 0.0 | 0.0 | 0.00 | 0.00 | 0.00 | 18 | 1012.0 |
| 20260504011505 | 51 | 356 | 0.0 | 0.0 | 0.00 | 0.00 | 0.00 | 17 | 1012.0 |
| 20260504011007 | 52 | 358 | 0.0 | 0.0 | 0.00 | 0.00 | 0.00 | 16 | 1011.9 |
| 20260504010507 | 52 | 358 | 0.0 | 1.0 | 0.00 | 0.00 | 0.00 | 12 | 1011.9 |
| 20260504010005 | 52 | 355 | 0.0 | 1.0 | 0.00 | 0.00 | 0.00 | 12 | 1011.8 |
| 20260504005505 | 53 | 357 | 0.0 | 0.0 | 0.00 | 0.00 | 0.00 | 10 | 1011.7 |
| 20260504005009 | 53 | 357 | 0.0 | 0.0 | 0.00 | 0.00 | 0.00 | 9 | 1011.7 |
| 20260504004505 | 54 | 357 | 0.0 | 0.0 | 0.00 | 0.00 | 0.00 | 9 | 1011.6 |
| 20260504004009 | 54 | 357 | 0.0 | 0.0 | 0.00 | 0.00 | 0.00 | 12 | 1011.5 |
| 20260504003505 | 55 | 358 | 0.0 | 0.0 | 0.00 | 0.00 | 0.00 | 10 | 1011.5 |
| 20260504003009 | 55 | 358 | 0.0 | 0.0 | 0.00 | 0.00 | 0.00 | 9 | 1011.4 |
| 20260504002505 | 55 | 359 | 0.0 | 0.0 | 0.00 | 0.00 | 0.00 | 8 | 1011.3 |
| 20260504002008 | 55 | 359 | 0.0 | 0.0 | 0.00 | 0.00 | 0.00 | 7 | 1011.3 |
| 20260504001506 | 56 | 355 | 0.0 | 1.0 | 0.00 | 0.00 | 0.00 | 4 | 1011.2 |
| 20260504001013 | 56 | 359 | 0.0 | 2.0 | 0.00 | 0.00 | 0.00 | 2 | 1011.2 |
| 20260504000530 | 56 | 0 | 1.0 | 3.0 | 0.00 | 0.00 | 0.00 | 2 | 1011.1 |
| 20260504000005 | 56 | 0 | 1.0 | 7.0 | 0.00 | 0.00 | 0.00 | 2 | 1011.1 |
| 20260503235505 | 56 | 358 | 2.0 | 7.0 | 0.00 | 0.00 | 0.00 | 2 | 1011.0 |
| 20260503235009 | 57 | 357 | 3.0 | 7.0 | 0.00 | 0.00 | 0.00 | 2 | 1011.0 |
| 20260503234505 | 57 | 0 | 1.0 | 7.0 | 0.00 | 0.00 | 0.00 | 2 | 1010.8 |
| 20260503234011 | 57 | 0 | 3.0 | 7.0 | 0.00 | 0.00 | 0.00 | 2 | 1010.8 |
| 20260503233505 | 58 | 0 | 2.0 | 8.0 | 0.00 | 0.00 | 0.00 | 2 | 1010.8 |
| 20260503233010 | 58 | 0 | 2.0 | 9.0 | 0.00 | 0.00 | 0.00 | 2 | 1010.7 |
| 20260503232505 | 58 | 0 | 2.0 | 9.0 | 0.00 | 0.00 | 0.00 | 2 | 1010.6 |
| 20260503232009 | 59 | 0 | 3.0 | 9.0 | 0.00 | 0.00 | 0.00 | 2 | 1010.6 |
| 20260503231505 | 59 | 0 | 5.0 | 14.0 | 0.00 | 0.00 | 0.00 | 2 | 1010.5 |
| 20260503231007 | 60 | 0 | 5.0 | 14.0 | 0.00 | 0.00 | 0.00 | 2 | 1010.5 |
| 20260503230505 | 61 | 0 | 4.0 | 12.0 | 0.00 | 0.00 | 0.00 | 2 | 1010.5 |
| 20260503230005 | 61 | 278 | 2.0 | 12.0 | 0.00 | 0.00 | 0.00 | 2 | 1010.5 |
| 20260503225505 | 61 | 294 | 6.0 | 12.0 | 0.00 | 0.00 | 0.00 | 2 | 1010.4 |
| 20260503225009 | 61 | 274 | 5.0 | 12.0 | 0.00 | 0.00 | 0.00 | 2 | 1010.4 |
| 20260503224504 | 61 | 296 | 5.0 | 15.0 | 0.00 | 0.00 | 0.00 | 2 | 1010.4 |
| 20260503224009 | 61 | 271 | 5.0 | 15.0 | 0.00 | 0.00 | 0.00 | 2 | 1010.3 |
| 20260503223505 | 62 | 291 | 6.0 | 15.0 | 0.00 | 0.00 | 0.00 | 2 | 1010.3 |
| 20260503223009 | 62 | 275 | 7.0 | 15.0 | 0.00 | 0.00 | 0.00 | 2 | 1010.2 |
| 20260503222505 | 62 | 266 | 5.0 | 10.0 | 0.00 | 0.00 | 0.00 | 2 | 1010.2 |
| 20260503222009 | 61 | 310 | 5.0 | 10.0 | 0.00 | 0.00 | 0.00 | 2 | 1010.1 |
| 20260503221505 | 61 | 294 | 3.0 | 15.0 | 0.00 | 0.00 | 0.00 | 2 | 1010.1 |
| 20260503221007 | 61 | 286 | 6.0 | 17.0 | 0.00 | 0.00 | 0.00 | 2 | 1010.2 |
| 20260503220505 | 61 | 313 | 5.0 | 17.0 | 0.00 | 0.00 | 0.00 | 2 | 1010.1 |
| 20260503220005 | 60 | 304 | 5.0 | 21.0 | 0.00 | 0.00 | 0.00 | 2 | 1010.2 |
| 20260503215504 | 60 | 289 | 9.0 | 21.0 | 0.00 | 0.00 | 0.00 | 2 | 1010.2 |
| 20260503215009 | 61 | 309 | 9.0 | 20.0 | 0.00 | 0.00 | 0.00 | 2 | 1010.2 |
| 20260503214505 | 61 | 313 | 9.0 | 20.0 | 0.00 | 0.00 | 0.00 | 2 | 1010.1 |
| 20260503214009 | 61 | 270 | 7.0 | 15.0 | 0.00 | 0.00 | 0.00 | 2 | 1010.1 |
| 20260503213505 | 61 | 297 | 6.0 | 18.0 | 0.00 | 0.00 | 0.00 | 2 | 1010.2 |
| 20260503213009 | 61 | 300 | 7.0 | 20.0 | 0.00 | 0.00 | 0.00 | 2 | 1010.0 |
| 20260503212505 | 61 | 314 | 6.0 | 20.0 | 0.00 | 0.00 | 0.00 | 2 | 1009.9 |
| 20260503212008 | 61 | 305 | 11.0 | 21.0 | 0.00 | 0.00 | 0.00 | 2 | 1010.0 |
| 20260503211505 | 62 | 300 | 10.0 | 21.0 | 0.00 | 0.00 | 0.00 | 2 | 1010.0 |
| 20260503211008 | 61 | 330 | 4.0 | 16.0 | 0.00 | 0.00 | 0.00 | 2 | 1009.9 |
| 20260503210507 | 60 | 4 | 4.0 | 16.0 | 0.00 | 0.00 | 0.00 | 2 | 1010.0 |
| 20260503210006 | 60 | 311 | 9.0 | 17.0 | 0.00 | 0.00 | 0.00 | 2 | 1009.9 |
| 20260503205504 | 61 | 330 | 8.0 | 18.0 | 0.00 | 0.00 | 0.00 | 2 | 1010.0 |
| 20260503205009 | 61 | 0 | 9.0 | 18.0 | 0.00 | 0.00 | 0.00 | 2 | 1009.8 |
| 20260503204505 | 62 | 358 | 7.0 | 17.0 | 0.00 | 0.00 | 0.00 | 2 | 1009.7 |
| 20260503204011 | 62 | 338 | 6.0 | 17.0 | 0.00 | 0.00 | 0.00 | 2 | 1009.8 |
| 20260503203505 | 61 | 320 | 5.0 | 14.0 | 0.00 | 0.00 | 0.00 | 2 | 1009.8 |
| 20260503203009 | 61 | 332 | 5.0 | 15.0 | 0.00 | 0.00 | 0.00 | 2 | 1009.9 |
| 20260503202505 | 60 | 324 | 5.0 | 18.0 | 0.00 | 0.00 | 0.00 | 3 | 1009.8 |
| 20260503202009 | 59 | 314 | 7.0 | 21.0 | 0.00 | 0.00 | 0.00 | 2 | 1009.8 |
| 20260503201505 | 59 | 334 | 9.0 | 21.0 | 0.00 | 0.00 | 0.00 | 2 | 1010.0 |
| 20260503201009 | 59 | 298 | 5.0 | 20.0 | 0.00 | 0.00 | 0.00 | 2 | 1010.0 |
| 20260503200505 | 59 | 269 | 9.0 | 24.0 | 0.00 | 0.00 | 0.00 | 2 | 1010.1 |
| 20260503200004 | 58 | 308 | 6.0 | 24.0 | 0.00 | 0.00 | 0.00 | 3 | 1010.1 |
| 20260503195505 | 58 | 310 | 11.0 | 24.0 | 0.00 | 0.00 | 0.00 | 2 | 1010.2 |
| 20260503195008 | 58 | 343 | 5.0 | 17.0 | 0.00 | 0.00 | 0.00 | 4 | 1010.1 |
| 20260503194505 | 58 | 280 | 5.0 | 17.0 | 0.00 | 0.00 | 0.00 | 2 | 1010.2 |
| 20260503194009 | 58 | 298 | 8.0 | 17.0 | 0.00 | 0.00 | 0.00 | 2 | 1010.2 |
| 20260503193506 | 58 | 328 | 8.0 | 21.0 | 0.00 | 0.00 | 0.00 | 4 | 1010.2 |
| 20260503193009 | 57 | 320 | 6.0 | 23.0 | 0.00 | 0.01 | 0.00 | 5 | 1010.2 |
| 20260503192505 | 57 | 307 | 9.0 | 23.0 | 0.00 | 0.01 | 0.00 | 4 | 1010.3 |
| 20260503192008 | 57 | 312 | 13.0 | 23.0 | 0.00 | 0.01 | 0.00 | 4 | 1010.3 |
| 20260503191509 | 57 | 320 | 6.0 | 22.0 | 0.00 | 0.01 | 0.00 | 7 | 1010.4 |
| 20260503191008 | 57 | 0 | 11.0 | 22.0 | 0.00 | 0.01 | 0.00 | 5 | 1010.5 |
| 20260503190504 | 57 | 340 | 8.0 | 20.0 | 0.00 | 0.01 | 0.00 | 6 | 1010.5 |
| 20260503190006 | 56 | 19 | 6.0 | 25.0 | 0.00 | 0.01 | 0.00 | 7 | 1010.5 |